Vertical_Velocity
-0 -0 -0 0 1 1 1 1 2 2 2 1 0 -0 0 1 1 1 1 2 2 1 0 1 1 0 -0 0 1 0 -1 -1 -1 -0 0 0 0 -0 -1 -1 0 0 -0 -0 -0 -0 -1 -0 -0 -1 -1 -1 -2 -1 -1 0 1 1 1 -0 1 3 4 -0 -6 -6 -3 -1 2
-1 -0 1 1 2 1 0 -0 0 1 2 2 1 1 1 1 1 0 1 2 3 3 2 1 1 1 0 0 2 1 -0 -3 -3 -2 -2 -1 -0 0 0 -1 -0 0 1 0 0 -0 -0 -1 -0 -1 -2 -2 -2 -2 -2 -0 1 1 0 -0 1 3 3 -0 -5 -3 1 4 4
-1 -1 -1 0 1 0 -1 -2 -1 -0 1 1 2 2 1 1 1 1 1 2 3 3 3 1 0 0 1 1 1 1 1 -1 -2 -3 -3 -2 -1 -0 -0 -0 -1 -0 0 1 0 0 0 -0 -0 -1 -2 -2 -2 -2 -2 -2 0 1 2 2 3 2 1 -1 -1 1 5 6 6
-0 -1 -1 -1 1 1 0 -1 -1 -1 -0 -0 1 1 2 1 1 1 1 1 1 2 2 1 0 1 2 2 1 1 1 1 -0 -1 -1 -1 -0 0 0 1 0 -1 -1 -1 -0 0 0 1 1 -0 -1 -2 -2 -2 -2 -2 -0 1 3 3 2 1 1 0 1 2 4 5 5
-1 -0 0 1 2 2 1 0 -0 -1 -1 -1 0 1 1 1 1 1 0 -0 0 2 2 2 2 2 3 3 1 0 -0 0 1 0 -0 -0 -0 0 1 2 2 0 -1 -1 -1 -0 0 1 1 -0 -1 -1 -1 -2 -2 -1 0 1 2 2 1 0 -0 -1 -1 1 2 3 3
-2 -1 -1 1 1 1 1 0 1 1 1 0 1 1 1 2 1 1 1 1 1 1 1 0 1 2 1 -0 -1 -1 -1 -0 1 1 0 -0 -0 -0 -0 1 2 1 -0 -1 -1 -0 0 1 0 -1 -1 -1 -2 -2 -1 1 1 1 1 -0 -0 -0 -1 -4 -5 -3 -0 1 2
-0 -1 -1 -1 -0 0 0 0 1 1 1 1 1 1 2 3 2 2 3 3 1 -1 -1 -0 0 -0 -1 -2 -2 -2 -2 -1 -0 0 0 -0 0 0 0 1 1 1 0 -1 -2 -1 -0 1 0 -1 -2 -1 -1 -2 -1 2 2 2 1 -0 0 1 -0 -5 -9 -9 -6 -3 -0
1 1 1 0 0 1 1 0 0 0 -0 1 1 2 2 2 2 1 1 -0 -1 -1 -0 0 0 -0 -0 -0 -0 -1 -1 -2 -2 -1 -0 0 0 0 0 0 -0 0 0 -0 -1 -1 -1 0 0 0 -0 -0 -1 -1 -1 1 2 1 0 -0 1 2 1 -4 -8 -10 -8 -5 -3
-1 -0 0 1 1 1 1 1 1 1 1 1 2 2 2 2 2 1 -1 -2 -1 1 1 1 0 -0 -0 0 0 -0 -1 -2 -2 -2 -0 1 1 1 0 -1 -1 -1 -1 -2 -2 -2 -1 -0 0 1 2 2 1 -0 -0 1 2 1 0 0 3 4 3 -1 -4 -4 -1 2 2
-1 -1 -1 -1 -1 -0 -0 0 0 1 1 1 2 2 2 2 2 1 0 1 1 1 1 1 0 -1 -2 -0 -0 -0 -1 -1 -1 -1 0 1 2 2 1 0 -1 -1 -2 -3 -4 -4 -3 -1 0 2 3 4 4 3 2 2 3 2 1 0 4 6 6 3 1 1 3 8 11
-1 -1 -1 -1 -1 -1 -1 -1 -1 -1 0 1 0 0 1 1 1 1 1 3 1 0 -0 1 -0 -1 -1 -0 -0 -0 -0 -0 -0 -0 0 1 2 3 3 2 2 1 -0 -2 -4 -5 -4 -2 0 1 2 3 4 4 4 2 2 2 2 1 4 7 8 5 3 1 2 6 10
-1 -1 -0 -0 -1 -1 -1 -2 -2 -1 -1 0 -0 -0 -0 1 1 1 1 1 -0 -1 -1 1 0 -0 -0 0 -0 -1 -1 -1 -0 0 0 0 1 3 3 4 2 2 1 -0 -3 -4 -3 -1 1 2 2 1 0 1 1 0 0 1 3 3 4 6 7 6 3 0 -1 1 5
-0 -1 -1 -1 -1 -1 -2 -2 -2 -2 -1 -0 -0 -1 -0 0 1 1 -0 -0 -1 -1 -1 0 1 1 0 1 0 -0 -1 -1 -0 0 1 1 1 2 2 4 3 1 1 1 -1 -2 -2 -2 -0 1 2 2 1 0 0 0 0 1 2 4 4 4 5 6 3 0 -2 -2 0
-0 -0 -0 -0 -1 -1 -2 -3 -3 -2 -2 -1 -1 -1 -0 -0 0 0 -0 -0 -0 0 0 0 0 0 1 3 2 1 1 1 0 0 1 2 2 1 1 3 3 2 1 1 1 0 -1 -2 -2 -2 -1 0 1 2 2 2 2 2 2 5 6 6 6 7 6 2 -1 -3 -1
-0 0 0 -0 -0 -1 -1 -2 -3 -3 -2 -2 -1 -0 0 -0 0 0 0 -0 1 1 1 0 -0 -0 1 4 3 3 2 2 1 0 -0 -0 0 0 1 2 3 2 1 1 2 2 2 1 -1 -1 -1 -1 -0 0 1 3 4 4 4 4 6 8 9 11 9 6 1 -3 -3
-0 0 0 -0 -0 -0 -0 -1 -1 -2 -2 -1 -1 -0 -0 -0 0 0 0 0 1 1 1 2 0 -0 -0 3 3 2 1 1 1 -0 -1 -2 -2 -1 -0 1 2 2 1 -0 1 1 3 4 2 1 1 1 0 0 0 1 3 5 5 5 4 3 4 7 9 8 5 -0 -2
-1 -0 -0 -0 -0 -0 -0 0 0 -0 -1 -1 -1 -0 -0 0 0 0 1 2 2 1 1 2 1 -0 -1 1 1 0 -1 -2 -1 -1 -2 -2 -3 -2 -1 1 2 3 2 0 -0 0 1 3 3 3 3 3 3 2 1 1 3 4 5 5 5 4 2 2 5 8 10 8 2
-1 -1 -1 -1 -1 -1 -1 -0 0 0 -0 -1 -1 -0 1 1 1 1 2 3 3 3 2 1 1 0 -0 -0 -0 -0 -1 -2 -2 -2 -2 -2 -2 -2 -1 1 3 4 4 1 -0 -0 1 1 2 3 3 3 4 4 3 2 3 4 4 5 5 5 5 5 5 8 12 15 7
-2 -2 -2 -2 -2 -2 -1 -1 -1 -0 -0 -0 0 0 0 1 1 1 1 1 2 3 3 1 1 0 -0 -1 -0 0 0 -1 -2 -2 -2 -2 -2 -3 -3 -1 1 2 3 2 1 1 1 1 1 1 1 1 2 3 3 3 4 4 6 7 7 6 6 6 7 8 10 14 10
-1 -2 -2 -2 -2 -2 -2 -1 -1 -0 -0 0 0 -0 -0 0 0 0 -0 -1 0 1 2 2 1 1 -1 -2 -2 -1 -0 0 -1 -2 -3 -4 -4 -4 -5 -4 -2 0 2 3 4 4 3 2 1 0 0 0 -1 -1 0 2 3 5 6 7 8 8 8 7 7 8 9 12 13
-1 -1 -1 -1 -1 -1 -1 -1 -1 -0 -0 0 0 0 -0 -1 -1 -0 0 0 1 1 1 1 1 1 -0 -3 -3 -2 -1 0 -0 -1 -3 -4 -4 -4 -4 -5 -4 -2 -0 1 4 6 6 6 2 1 -0 -1 -2 -3 -3 -2 1 4 5 7 8 8 8 7 8 9 12 16 18
-1 -1 -1 -1 0 0 0 -1 -1 -0 -0 0 0 -0 -1 -1 -1 -0 0 1 1 1 1 0 1 0 0 -1 -2 -1 -1 -0 0 0 -1 -3 -4 -4 -3 -3 -3 -3 -3 -2 2 6 8 8 4 1 -0 -1 -2 -4 -5 -5 -2 1 4 6 7 7 6 5 5 8 14 19 20
-0 -1 -0 0 1 1 0 -1 -1 -1 -1 -1 -1 -2 -2 -2 -2 -1 -0 0 0 0 0 -0 -0 0 0 0 0 -0 -1 -1 -1 -1 -1 -1 -3 -3 -3 -2 -2 -2 -3 -3 0 9 15 7 4 1 -1 -1 -2 -3 -4 -6 -5 -3 0 4 5 6 5 3 3 5 9 15 18
-0 -0 0 1 1 1 -0 -1 -1 -2 -2 -2 -2 -2 -2 -2 -3 -3 -2 -1 -0 -0 -0 -1 -1 -1 -0 0 0 0 -0 -1 -3 -3 -3 -2 -2 -2 -2 -1 -1 -1 -0 -1 -1 18 29 4 1 -1 -2 -2 -2 -2 -3 -4 -5 -5 -3 -0 2 3 3 2 1 2 4 7 11
-0 0 1 1 1 1 -0 -2 -2 -2 -1 -1 -1 -1 -2 -3 -3 -3 -3 -2 -1 -1 -1 -1 -1 -2 -2 -2 -1 -0 -0 -1 -2 -4 -5 -6 -4 -3 -2 -1 -1 1 2 -2 4 27 36 1 -1 -2 -3 -4 -3 -2 -3 -4 -5 -5 -4 -3 -1 0 1 1 0 0 1 2 5
0 0 1 1 1 0 -1 -2 -1 -1 -1 -1 -1 -2 -3 -3 -3 -3 -3 -3 -2 -2 -1 -2 -2 -3 -3 -3 -2 -2 -2 -1 -2 -3 -4 -6 -5 -4 -3 -2 -0 2 2 -3 26 32 21 -0 -2 -4 -5 -4 -4 -4 -4 -5 -4 -4 -4 -4 -3 -3 -2 -1 -1 -0 0 1 2
-1 -0 0 1 1 -0 -1 -1 -1 -1 -1 -2 -2 -3 -3 -2 -2 -3 -3 -2 -2 -1 -1 -2 -3 -3 -3 -2 -3 -3 -3 -3 -3 -3 -3 -3 -3 -4 -4 -3 0 3 4 6 42 31 5 -4 -5 -6 -6 -5 -4 -4 -5 -5 -5 -4 -4 -4 -4 -4 -4 -4 -2 -1 -0 -0 -0
-1 -1 0 0 -0 -1 -1 -2 -2 -2 -2 -2 -2 -2 -1 -1 -2 -2 -2 -2 -1 -2 -4 -5 -4 -3 -2 -2 -2 -2 -2 -2 -3 -3 -3 -2 -1 -1 -2 -3 1 3 8 22 38 24 2 -7 -7 -6 -6 -5 -5 -4 -5 -5 -4 -4 -4 -3 -4 -4 -4 -4 -4 -2 -1 -1 -1
-1 -1 -1 -1 -1 -2 -2 -3 -3 -3 -2 -2 -1 -1 -0 -1 -1 -2 -2 -3 -3 -4 -5 -6 -4 -3 -2 -2 -1 -2 -2 -3 -3 -4 -4 -3 -2 -1 -2 -2 1 2 8 26 38 25 6 -4 -4 -3 -4 -4 -4 -5 -5 -5 -4 -3 -2 -2 -2 -2 -2 -3 -3 -3 -2 -1 -1
-1 -1 -1 -1 -2 -2 -3 -3 -2 -2 -2 -2 -1 -0 -0 -1 -2 -3 -4 -5 -4 -3 -2 -1 -1 -1 -0 0 0 -0 -2 -3 -4 -4 -4 -3 -2 -2 -2 -2 1 1 5 20 40 31 12 0 1 -0 -2 -3 -4 -4 -5 -4 -3 -2 -0 1 2 1 1 0 0 -0 -1 -2 -1
-1 -2 -2 -2 -2 -2 -2 -2 -2 -2 -2 -1 -1 -1 -1 -2 -2 -3 -3 -3 -2 -1 -0 0 -0 -0 0 1 2 2 -0 -4 -5 -5 -4 -3 -1 -1 -2 -2 -0 -1 1 11 36 34 18 1 1 0 -1 -3 -3 -4 -4 -3 -2 -0 1 4 4 4 3 3 3 3 2 -1 -2
-2 -2 -2 -2 -2 -2 -1 -2 -2 -2 -2 -1 -1 -1 -1 -1 -0 -0 -0 -1 -2 -2 -3 -3 -4 -4 -3 -3 -1 1 0 -4 -6 -6 -4 -2 0 1 -1 -2 -2 -3 -2 2 28 35 25 -1 -0 -0 -1 -3 -4 -4 -3 -2 -1 0 2 4 5 5 5 4 4 4 3 1 -2
-2 -2 -2 -2 -2 -2 -1 -2 -3 -2 -1 -1 -0 -0 -1 -1 -1 -1 -1 -1 -2 -2 -2 -2 -4 -4 -5 -5 -3 -1 0 -2 -4 -5 -4 -2 1 3 1 -2 -4 -5 -4 -2 17 31 30 3 0 -1 -1 -2 -3 -2 -0 1 -0 -0 1 3 4 5 4 3 3 2 2 2 -0
-2 -2 -2 -2 -1 -1 -2 -3 -3 -2 -1 -1 -0 0 -0 -1 -2 -3 -3 -3 -2 -1 1 2 0 -1 -1 -1 -1 -0 0 -1 -3 -4 -6 -5 -0 3 4 -0 -4 -5 -4 -2 6 21 30 19 4 -1 -2 -3 -4 -2 2 6 4 1 -0 1 2 3 3 2 1 0 0 1 1
-2 -2 -2 -1 -1 -1 -2 -4 -3 -2 -1 -1 -1 -1 -1 -0 -1 -2 -2 -3 -2 -0 1 2 1 1 -0 0 -1 -1 -1 -1 -3 -4 -5 -6 -3 1 4 2 -2 -4 -4 -2 0 11 25 37 12 1 -1 -3 -5 -4 -0 5 6 4 1 1 1 1 1 1 -1 -2 -2 -1 1
-1 -1 -1 -1 -1 -2 -3 -4 -2 -2 -1 -1 -2 -3 -3 -2 -1 -0 -1 -2 -1 -1 -0 1 -1 -1 -2 -2 -2 -2 -2 -1 -2 -3 -4 -6 -5 -2 1 3 -1 -4 -5 -4 -2 3 14 36 24 11 1 -2 -4 -5 -3 0 3 3 2 1 0 -0 -0 0 -1 -2 -4 -4 3
-1 -1 -1 -1 -1 -2 -2 -3 -2 -2 -2 -2 -2 -2 -2 -2 -2 -1 -1 -2 -2 -2 -1 -0 -2 -3 -2 -1 -1 -1 -0 0 1 -0 -2 -4 -5 -4 -2 1 0 -2 -5 -5 -3 -1 4 20 34 24 6 1 -1 -3 -4 -2 0 2 2 0 -0 -1 -1 -1 -0 -2 -5 -6 4
-0 -0 -0 -1 -1 -2 -2 -2 -2 -2 -2 -2 -2 -1 -1 -1 -2 -2 -1 -0 -1 -2 -2 -2 -2 -2 -1 -0 0 1 1 2 3 3 1 -2 -4 -4 -4 -1 0 -1 -3 -5 -4 -3 -1 4 26 28 19 6 1 -2 -3 -4 -1 1 2 0 -0 -1 -1 -1 -1 -2 -4 -7 4
-0 0 0 0 -1 -2 -2 -1 -1 -1 -2 -3 -2 -2 -2 -1 -1 -1 -0 2 2 1 -1 -1 -1 -1 -0 0 0 0 1 3 4 4 2 0 -1 -2 -2 -2 -1 -1 -1 -3 -4 -4 -4 -4 10 23 26 12 3 -1 -3 -4 -2 0 1 0 -1 -1 -1 -1 -1 -1 -2 -4 1
-0 0 1 1 -0 -1 -2 -1 -1 -0 -1 -1 -2 -3 -2 -1 0 1 1 3 3 1 -1 -1 -0 1 1 0 -0 -1 0 2 3 4 3 3 2 0 -1 -2 -2 -1 -1 -2 -4 -4 -4 -4 2 12 19 17 3 -2 -3 -4 -3 -1 -0 -1 -2 -2 -2 -2 -1 -1 -1 -1 -1
0 0 0 1 0 -1 -2 -2 -1 -1 -0 -1 -1 -1 -1 1 2 2 1 2 1 0 -1 -1 -1 0 1 1 -0 -1 0 2 3 4 4 4 3 1 -0 -2 -3 -2 -1 -1 -3 -4 -4 -2 -0 3 10 23 6 -1 -3 -4 -4 -3 -2 -2 -2 -3 -3 -3 -3 -2 -2 -1 -1
Height
1503 1501 1500 1499 1497 1495 1494 1492 1490 1488 1486 1484 1482 1480 1478 1476 1475 1473 1471 1469 1468 1466 1464 1462 1460 1458 1456 1454 1452 1450 1448 1445 1444 1442 1440 1438 1436 1434 1432 1430 1429 1428 1426 1424 1423 1422 1421 1420 1419 1418 1417 1415 1414 1414 1414 1413 1413 1413 1413 1413 1413 1412 1412 1412 1412 1412 1412 1412 1412
1502 1501 1499 1498 1497 1495 1493 1491 1489 1487 1486 1484 1482 1480 1478 1476 1474 1472 1470 1469 1467 1465 1464 1461 1459 1458 1455 1454 1452 1449 1447 1444 1442 1440 1438 1436 1434 1433 1431 1429 1428 1426 1425 1423 1422 1420 1419 1418 1417 1416 1414 1413 1413 1412 1411 1411 1411 1411 1410 1410 1410 1410 1410 1409 1409 1409 1409 1409 1409
1502 1500 1499 1497 1496 1494 1492 1490 1488 1486 1484 1483 1481 1479 1478 1476 1474 1472 1470 1468 1467 1465 1463 1461 1459 1457 1455 1453 1451 1449 1446 1444 1441 1439 1437 1435 1433 1431 1430 1428 1426 1425 1424 1422 1420 1419 1418 1416 1415 1414 1413 1411 1411 1410 1409 1409 1409 1409 1408 1408 1408 1408 1407 1406 1406 1407 1406 1406 1405
1501 1500 1498 1497 1495 1494 1492 1490 1488 1486 1484 1482 1480 1479 1477 1475 1473 1471 1469 1467 1465 1464 1462 1460 1458 1456 1454 1453 1450 1448 1446 1444 1441 1438 1436 1434 1432 1430 1429 1427 1425 1424 1422 1420 1419 1418 1416 1415 1414 1412 1411 1410 1409 1408 1407 1407 1407 1407 1407 1406 1406 1405 1404 1404 1403 1403 1403 1402 1402
1501 1499 1498 1497 1495 1494 1492 1489 1487 1485 1483 1482 1480 1478 1476 1474 1472 1470 1469 1466 1465 1463 1461 1459 1458 1456 1454 1452 1449 1447 1445 1443 1440 1438 1435 1433 1431 1429 1428 1426 1424 1422 1420 1419 1417 1416 1414 1413 1412 1410 1409 1408 1407 1406 1405 1405 1405 1405 1404 1404 1404 1403 1401 1400 1400 1400 1400 1399 1399
1500 1499 1497 1496 1494 1493 1491 1489 1487 1485 1483 1481 1479 1477 1475 1473 1471 1469 1468 1466 1464 1462 1460 1459 1457 1455 1453 1451 1449 1446 1444 1442 1440 1437 1435 1433 1430 1429 1427 1425 1423 1421 1419 1417 1415 1414 1413 1411 1410 1409 1407 1406 1405 1404 1404 1404 1403 1403 1403 1402 1402 1401 1399 1398 1397 1397 1397 1397 1397
1500 1498 1497 1495 1494 1492 1490 1488 1486 1484 1482 1480 1478 1476 1474 1472 1470 1469 1467 1465 1463 1461 1459 1458 1456 1454 1452 1450 1448 1446 1444 1441 1439 1437 1435 1432 1430 1428 1426 1424 1422 1420 1418 1416 1414 1412 1411 1409 1408 1407 1405 1404 1404 1403 1402 1402 1402 1401 1401 1400 1400 1399 1398 1396 1395 1395 1395 1394 1394
1500 1498 1496 1494 1493 1491 1489 1487 1485 1483 1481 1479 1477 1475 1473 1471 1469 1468 1466 1464 1462 1460 1459 1457 1455 1453 1451 1450 1448 1446 1443 1441 1439 1437 1434 1432 1430 1428 1426 1424 1421 1419 1417 1415 1413 1411 1409 1408 1407 1405 1404 1403 1402 1401 1400 1400 1400 1400 1399 1399 1399 1398 1397 1396 1394 1394 1394 1393 1393
1499 1497 1495 1494 1492 1490 1488 1486 1484 1482 1480 1478 1476 1474 1472 1470 1469 1467 1465 1463 1461 1460 1458 1456 1454 1453 1451 1449 1448 1445 1443 1441 1439 1436 1434 1432 1430 1428 1425 1423 1421 1419 1416 1414 1412 1409 1408 1406 1405 1404 1403 1402 1401 1400 1399 1399 1399 1399 1398 1398 1398 1397 1396 1395 1394 1394 1394 1393 1392
1498 1496 1494 1493 1490 1489 1487 1485 1483 1481 1479 1477 1475 1473 1472 1470 1468 1466 1464 1463 1461 1459 1458 1456 1454 1452 1450 1449 1447 1445 1443 1441 1439 1437 1434 1432 1430 1428 1426 1423 1421 1418 1416 1413 1411 1409 1407 1405 1404 1403 1402 1401 1400 1399 1398 1398 1398 1397 1397 1397 1397 1396 1395 1395 1394 1394 1393 1393 1392
1498 1496 1494 1492 1490 1488 1486 1484 1482 1480 1478 1476 1474 1472 1470 1469 1467 1465 1464 1462 1460 1459 1457 1455 1454 1452 1450 1449 1447 1445 1443 1441 1439 1436 1434 1432 1430 1428 1426 1424 1421 1419 1416 1414 1411 1409 1407 1405 1404 1402 1401 1400 1399 1398 1398 1397 1396 1396 1395 1395 1395 1395 1394 1394 1393 1393 1392 1391 1390
1498 1496 1494 1492 1490 1488 1485 1484 1481 1479 1478 1476 1474 1472 1470 1468 1466 1464 1463 1461 1460 1458 1456 1455 1453 1452 1450 1448 1446 1444 1442 1440 1439 1436 1434 1432 1430 1428 1426 1424 1421 1419 1416 1414 1412 1409 1408 1406 1404 1402 1400 1399 1398 1397 1396 1395 1395 1394 1394 1394 1394 1394 1393 1393 1393 1392 1391 1389 1389
1497 1495 1493 1491 1489 1487 1485 1483 1481 1479 1477 1475 1473 1471 1469 1468 1466 1464 1462 1461 1459 1457 1456 1454 1453 1451 1450 1448 1446 1444 1442 1440 1438 1436 1434 1432 1430 1428 1426 1424 1421 1419 1417 1415 1413 1411 1408 1406 1404 1402 1400 1398 1397 1396 1395 1394 1393 1393 1393 1393 1393 1392 1392 1392 1392 1391 1390 1389 1388
1497 1495 1493 1491 1489 1487 1485 1483 1481 1479 1477 1475 1473 1471 1469 1467 1465 1464 1462 1460 1459 1457 1455 1454 1452 1451 1449 1448 1446 1444 1442 1440 1438 1436 1434 1432 1430 1428 1426 1424 1422 1419 1417 1415 1414 1412 1409 1407 1404 1402 1400 1398 1397 1395 1394 1393 1392 1392 1392 1391 1392 1391 1391 1391 1390 1390 1390 1389 1388
1496 1495 1493 1491 1489 1487 1485 1483 1481 1479 1477 1475 1473 1471 1469 1467 1465 1464 1462 1460 1459 1457 1455 1453 1452 1450 1449 1448 1446 1444 1442 1440 1438 1436 1434 1432 1429 1428 1426 1424 1422 1419 1418 1415 1414 1412 1410 1408 1405 1403 1400 1398 1396 1395 1394 1393 1392 1391 1390 1390 1390 1390 1390 1390 1390 1389 1389 1388 1388
1496 1494 1493 1491 1489 1487 1485 1483 1481 1479 1477 1475 1473 1471 1469 1467 1465 1464 1462 1460 1458 1456 1455 1453 1451 1449 1448 1447 1445 1443 1441 1439 1438 1436 1434 1431 1429 1427 1425 1424 1422 1420 1418 1416 1414 1412 1411 1409 1407 1404 1402 1399 1397 1395 1393 1392 1391 1390 1389 1388 1388 1388 1388 1388 1389 1388 1388 1387 1387
1495 1494 1492 1490 1488 1487 1485 1483 1481 1479 1477 1475 1473 1471 1469 1467 1465 1464 1462 1460 1458 1456 1454 1453 1451 1449 1448 1446 1445 1443 1441 1439 1437 1435 1434 1432 1429 1427 1425 1424 1422 1420 1418 1416 1414 1413 1411 1409 1408 1406 1403 1400 1398 1395 1394 1392 1391 1389 1388 1387 1386 1386 1386 1386 1386 1387 1387 1386 1385
1495 1493 1491 1490 1488 1486 1484 1483 1481 1479 1477 1475 1473 1471 1469 1468 1465 1464 1462 1460 1459 1456 1454 1453 1451 1449 1447 1446 1444 1443 1441 1439 1437 1435 1434 1432 1430 1428 1425 1424 1422 1420 1419 1417 1415 1413 1411 1409 1408 1406 1404 1402 1399 1397 1394 1393 1391 1389 1388 1387 1386 1385 1384 1384 1384 1385 1385 1385 1384
1494 1493 1491 1489 1487 1485 1484 1482 1480 1478 1476 1474 1473 1471 1469 1467 1465 1463 1461 1459 1458 1456 1454 1452 1450 1449 1447 1445 1444 1442 1441 1439 1437 1435 1434 1432 1430 1428 1426 1424 1422 1420 1419 1417 1415 1413 1411 1410 1408 1407 1405 1403 1401 1399 1396 1394 1392 1390 1389 1388 1386 1385 1384 1383 1383 1383 1383 1383 1383
1494 1492 1490 1489 1487 1485 1483 1481 1479 1478 1476 1474 1472 1470 1468 1466 1465 1463 1461 1459 1457 1456 1454 1452 1450 1448 1446 1445 1443 1442 1440 1439 1437 1435 1433 1432 1430 1428 1426 1424 1422 1420 1419 1417 1416 1414 1412 1410 1408 1407 1405 1404 1402 1400 1398 1396 1394 1392 1390 1389 1387 1386 1385 1384 1383 1382 1382 1382 1381
1494 1492 1490 1488 1486 1484 1483 1481 1479 1477 1475 1474 1472 1469 1468 1466 1464 1462 1460 1459 1457 1455 1454 1452 1450 1448 1446 1444 1443 1441 1440 1438 1437 1435 1433 1431 1430 1428 1426 1424 1422 1420 1419 1417 1416 1414 1412 1410 1409 1407 1405 1404 1402 1401 1399 1397 1395 1394 1392 1390 1389 1387 1386 1385 1384 1383 1382 1381 1381
1493 1491 1489 1488 1486 1484 1482 1480 1478 1476 1475 1473 1471 1469 1467 1465 1463 1461 1460 1458 1456 1454 1453 1451 1449 1448 1446 1444 1442 1441 1439 1438 1436 1435 1433 1431 1429 1428 1426 1424 1422 1420 1419 1417 1415 1414 1412 1410 1409 1407 1405 1404 1402 1401 1399 1398 1396 1395 1393 1391 1390 1388 1387 1386 1385 1384 1383 1382 1380
1492 1490 1489 1487 1485 1484 1481 1479 1477 1476 1474 1472 1470 1468 1466 1464 1462 1461 1459 1457 1456 1454 1452 1450 1449 1447 1446 1444 1442 1440 1439 1437 1435 1434 1433 1431 1429 1427 1425 1424 1422 1420 1419 1417 1415 1414 1413 1410 1409 1407 1405 1404 1402 1401 1399 1399 1397 1396 1394 1392 1391 1389 1388 1387 1385 1384 1384 1382 1381
1492 1490 1488 1486 1484 1483 1480 1479 1476 1474 1473 1471 1469 1467 1465 1463 1461 1460 1458 1456 1455 1453 1452 1450 1448 1446 1445 1444 1442 1440 1438 1436 1435 1433 1432 1430 1429 1427 1425 1423 1422 1420 1419 1417 1415 1415 1414 1410 1408 1407 1406 1404 1403 1401 1400 1399 1398 1396 1395 1393 1392 1390 1389 1388 1387 1385 1384 1383 1382
1491 1489 1488 1486 1484 1482 1479 1478 1475 1474 1472 1470 1468 1466 1464 1463 1461 1459 1457 1455 1454 1453 1451 1449 1447 1446 1444 1443 1441 1440 1438 1436 1434 1433 1431 1429 1428 1426 1425 1423 1422 1420 1419 1417 1415 1416 1414 1409 1409 1407 1406 1404 1403 1402 1400 1399 1398 1397 1396 1394 1393 1392 1390 1389 1388 1387 1386 1384 1384
1490 1489 1487 1485 1483 1481 1479 1477 1475 1473 1471 1469 1467 1465 1464 1462 1460 1458 1456 1455 1453 1452 1450 1448 1447 1445 1443 1442 1440 1439 1438 1436 1434 1433 1431 1429 1428 1426 1424 1423 1421 1420 1418 1416 1418 1416 1413 1410 1409 1408 1407 1405 1403 1402 1401 1400 1399 1398 1396 1395 1394 1393 1391 1390 1389 1388 1387 1386 1385
1489 1488 1486 1484 1482 1480 1478 1476 1474 1472 1470 1469 1467 1465 1463 1461 1459 1458 1456 1454 1453 1451 1449 1448 1446 1444 1443 1441 1440 1439 1437 1436 1434 1433 1431 1429 1428 1426 1424 1423 1421 1419 1418 1417 1419 1417 1413 1411 1410 1409 1407 1405 1404 1403 1401 1400 1399 1398 1397 1396 1395 1394 1393 1391 1390 1389 1388 1387 1386
1489 1487 1485 1484 1482 1479 1478 1476 1474 1472 1470 1468 1466 1464 1463 1461 1459 1457 1455 1454 1452 1450 1448 1447 1445 1444 1443 1441 1440 1439 1437 1436 1434 1433 1431 1429 1428 1426 1424 1422 1421 1419 1418 1419 1420 1418 1414 1412 1411 1409 1408 1406 1404 1403 1402 1401 1400 1399 1398 1397 1395 1394 1394 1392 1391 1390 1389 1388 1387
1489 1487 1485 1483 1481 1479 1477 1475 1473 1471 1469 1467 1466 1464 1462 1460 1458 1456 1455 1453 1451 1449 1448 1446 1445 1444 1442 1441 1440 1438 1437 1435 1434 1433 1431 1429 1428 1426 1424 1422 1420 1419 1418 1419 1419 1418 1415 1413 1411 1409 1408 1407 1405 1404 1403 1401 1400 1399 1399 1398 1397 1396 1394 1394 1393 1391 1390 1389 1388
1488 1486 1484 1483 1480 1479 1477 1475 1473 1471 1469 1467 1465 1464 1462 1460 1458 1456 1454 1453 1451 1449 1448 1447 1445 1444 1442 1441 1440 1438 1437 1435 1434 1433 1431 1429 1427 1425 1424 1422 1421 1419 1418 1418 1419 1418 1416 1414 1412 1410 1409 1407 1406 1404 1403 1402 1401 1400 1399 1399 1398 1397 1396 1395 1394 1393 1391 1390 1389
1488 1486 1484 1482 1480 1478 1476 1474 1473 1471 1469 1467 1465 1463 1461 1459 1458 1456 1454 1453 1451 1449 1448 1447 1445 1444 1442 1441 1440 1439 1437 1435 1434 1433 1431 1429 1428 1426 1424 1422 1421 1419 1418 1418 1419 1419 1417 1414 1412 1411 1409 1408 1406 1405 1404 1403 1402 1401 1401 1400 1399 1398 1397 1396 1395 1394 1393 1391 1390
1488 1486 1484 1482 1480 1478 1476 1474 1472 1470 1469 1467 1465 1463 1461 1459 1458 1456 1454 1453 1451 1449 1448 1446 1444 1443 1442 1440 1439 1438 1437 1435 1434 1433 1431 1430 1428 1426 1424 1423 1421 1420 1419 1418 1418 1418 1417 1414 1413 1411 1410 1409 1407 1406 1405 1404 1403 1403 1402 1401 1400 1399 1398 1397 1396 1395 1394 1393 1392
1487 1485 1484 1482 1480 1478 1476 1474 1472 1470 1469 1467 1465 1464 1461 1459 1458 1456 1454 1452 1451 1449 1448 1446 1444 1443 1442 1440 1439 1438 1437 1435 1434 1433 1432 1430 1428 1426 1424 1423 1422 1421 1419 1418 1418 1418 1417 1414 1413 1412 1410 1409 1408 1407 1406 1406 1405 1404 1403 1402 1401 1400 1399 1398 1397 1396 1395 1395 1394
1487 1485 1484 1482 1480 1478 1476 1474 1472 1470 1469 1467 1465 1464 1462 1459 1458 1455 1454 1452 1451 1449 1449 1447 1445 1444 1442 1441 1440 1439 1437 1436 1434 1433 1432 1430 1429 1427 1425 1424 1422 1421 1420 1419 1418 1417 1417 1416 1414 1413 1411 1410 1409 1408 1407 1407 1406 1405 1404 1403 1402 1401 1400 1399 1398 1398 1397 1396 1396
1487 1485 1483 1482 1480 1478 1476 1474 1472 1470 1469 1467 1465 1463 1461 1459 1458 1456 1454 1452 1451 1450 1449 1447 1445 1444 1442 1441 1440 1439 1437 1436 1434 1433 1432 1430 1429 1427 1425 1424 1423 1421 1420 1419 1418 1417 1417 1417 1415 1413 1412 1410 1409 1408 1408 1407 1407 1406 1405 1404 1403 1402 1401 1400 1399 1399 1398 1398 1398
1487 1485 1484 1482 1480 1478 1476 1474 1472 1470 1469 1467 1465 1463 1461 1459 1458 1456 1454 1453 1451 1450 1449 1447 1445 1444 1442 1441 1439 1439 1437 1436 1435 1434 1432 1431 1429 1427 1425 1424 1423 1422 1420 1419 1418 1417 1417 1417 1415 1413 1411 1410 1409 1409 1408 1407 1407 1407 1406 1405 1404 1403 1402 1401 1400 1400 1400 1399 1399
1488 1486 1484 1482 1480 1478 1476 1474 1473 1471 1469 1467 1465 1463 1461 1459 1458 1456 1454 1453 1451 1450 1449 1447 1445 1444 1442 1441 1439 1438 1437 1436 1435 1434 1433 1431 1429 1428 1426 1424 1423 1422 1420 1419 1418 1417 1417 1416 1416 1414 1411 1410 1409 1409 1408 1407 1407 1407 1406 1405 1404 1404 1403 1402 1402 1401 1401 1400 1400
1488 1486 1484 1482 1480 1478 1476 1474 1473 1471 1469 1467 1465 1463 1461 1459 1458 1456 1454 1453 1452 1450 1449 1448 1446 1444 1443 1441 1440 1439 1438 1437 1436 1434 1433 1431 1430 1428 1426 1424 1423 1422 1421 1420 1419 1418 1417 1416 1416 1414 1412 1410 1410 1409 1408 1407 1407 1407 1406 1406 1405 1404 1404 1403 1403 1402 1402 1401 1401
1488 1486 1484 1482 1480 1478 1476 1474 1473 1471 1469 1467 1465 1463 1461 1459 1458 1456 1455 1454 1453 1451 1449 1448 1447 1445 1444 1442 1440 1439 1438 1437 1436 1435 1433 1432 1430 1429 1427 1425 1423 1422 1421 1420 1419 1418 1417 1416 1415 1415 1414 1411 1410 1409 1409 1408 1407 1407 1406 1406 1405 1404 1404 1404 1403 1403 1403 1402 1402
1488 1486 1484 1483 1480 1478 1476 1475 1473 1471 1469 1468 1465 1463 1461 1460 1459 1457 1456 1454 1453 1451 1450 1449 1447 1446 1444 1443 1441 1440 1439 1437 1436 1435 1434 1432 1430 1429 1427 1425 1424 1422 1421 1420 1419 1419 1418 1417 1416 1415 1414 1412 1411 1410 1409 1408 1408 1407 1406 1406 1405 1405 1404 1404 1404 1403 1403 1403 1402
1488 1486 1484 1483 1481 1479 1477 1475 1473 1471 1470 1468 1466 1464 1462 1460 1459 1458 1456 1454 1453 1452 1450 1449 1448 1446 1445 1443 1442 1440 1439 1438 1437 1435 1434 1433 1431 1429 1427 1426 1424 1423 1422 1421 1420 1419 1419 1418 1417 1416 1414 1413 1412 1410 1409 1409 1408 1407 1407 1406 1405 1405 1405 1404 1404 1404 1404 1403 1403